METEOR 2-11 DEB

Satellite information

Favourite Embed

Satellite Type and Status

DEBRISIN ORBIT

Key statistics

Satellite METEOR 2-11 DEB at a glance.

Uptime

14922

Days in orbit

Revolutions

≈ 14.0

Per day

Orbit

LEO

Low Earth Orbit

Inclination

82.5

Latest

Satellite identification and parameters

Extended collection of information and parameters for METEOR 2-11 DEB.

Object identification

Identified? True

Debris? True

Object name: METEOR 2-11 DEB

International designator: 1984-072M

Object number (NORAD): 40710

Object ID (CCSDS): 40710

Country: COMMONWEALTH OF INDEPENDENT STATES (CIS)

Current information (Y/N): Y

RCS size: SMALL

Orbital parameters

Period: 103.189 minutes

Inclination: 82.5256 deg

SMA: 7287.557 km

Apoapsis: 931.55 km

Periapsis: 887.295 km

RAAN: 336.0045 deg

Eccentricy: 0.0030364

Argument of periapsis: 90.2507 deg

Mean anomaly: 270.2139 deg

Mean motion: 13.95499788 rev/day

Mean motion (dot): 0.00002366 rev/day2

B* drag term: 0.0017255 1/REarth

Two-line elements (TLE)

Creation date: May 12, 2025, 7:41 p.m.

Reference frame: TEME

Reference center: EARTH

Epoch: May 12, 2025, 6:26 a.m. UTC

TLE line 0: 0 METEOR 2-11 DEB

TLE line 1: 1 40710U 84072M 25132.26827677 .00002366 00000-0 17255-2 0 9990

TLE line 2: 2 40710 82.5256 336.0045 0030364 90.2507 270.2139 13.95499788 55188

Live tracking on map

Real-time ground track for satellite METEOR 2-11 DEB.

In-orbit conjunctions

A list of the most updated potential collisions computed for object METEOR 2-11 DEB.

Target Orbit TCA Probability of collision Miss distance Type
FENGYUN 1C DEB SSO 2024-12-22 14:27:10 0.000234815 37.0 (m) DEBRIS
COSMOS 970 DEB LEO 2024-11-14 00:19:38 0.000515925 135.0 (m) DEBRIS
FENGYUN 1C DEB SSO 2024-11-08 19:08:52 0.000303145 171.0 (m) DEBRIS

Associated space launch

Second generation soviet meteorological satellite

METEOR 2-11 DEB was lifted into orbit during the mission ‘Tsiklon-3 | Meteor-2 11’, on board a Tsiklon-3 space rocket.

The launch took place on July 5, 1984, 3:35 a.m. from 32/2.

For more information about the launch, click the button.

Launch to space Tsiklon-3 | Meteor-2 11
Tsiklon-3 | Meteor-2 11

Agency: N/A

Status: Launch Successful

Launch date: July 5, 1984, 3:35 a.m. UTC

Rocket: Tsiklon-3

Launch pad: 32/2

Location: Plesetsk Cosmodrome, Russian Federation

...

Latest news about this satellite

There are no fresh news available about this satellite. Check back as we update our databases every day.


Newsletter sign-up

Weekly statistics, charts and insights to help you stay on top of the space industry.